Regional Weather Roundup
Issued by NWS

Home | Current Version | Previous Version | Graphics & Text | Print | Product List | Glossary On
Versions: 1 2 3 4 5 6 7 8 9 10 11 12 13 14 15 16 17 18 19 20 21 22 23 24 25 26 27 28 29 30 31 32 33 34 35 36 37 38 39 40 41 42 43 44 45 46 47 48 49 50
000
ASUS43 KDTX 270210
RWRMI
MICHIGAN HOURLY REGIONAL WEATHER ROUNDUP
NATIONAL WEATHER SERVICE DETROIT/PONTIAC MI
900 PM EST MON JAN 26 2015

NOTE: "FAIR" INDICATES FEW OR NO CLOUDS BELOW 12,000 FEET WITH NO
SIGNIFICANT WEATHER AND/OR OBSTRUCTION TO VISIBILITY.

MIZ047>049-052>055-059>063-066>070-074>076-081>083-270300-
SOUTHEAST LOWER MICHIGAN

CITY           SKY/WX    TMP DP  RH WIND       PRES   REMARKS
ADRIAN         PTCLDY    15   8  73 SE3       29.96R
ALMA           CLEAR     13  10  87 CALM      29.98F
ANN ARBOR      MOCLDY    17   9  70 E3        29.96R
BAD AXE        CLEAR      5   2  88 CALM      29.99S
DETROIT CITY   CLEAR     18  10  71 N6        29.98R
DETROIT        PTCLDY    17   9  70 CALM      29.98R
FLINT          CLEAR     17   9  70 E7        29.98R
GROSSE ILE     PTCLDY    16   9  73 NE3       29.96S
HILLSDALE      MOCLDY    15   5  64 CALM      29.93R
HOWELL         CLOUDY    17   8  68 NE5       29.95R

CITY           SKY/WX    TMP DP  RH WIND       PRES   REMARKS
JACKSON        CLEAR     18   8  65 N3        29.94R
LAMBERTVILLE   CLEAR     16  10  79 CALM      29.97R
LANSING          N/A     18   8  65 NE7       29.97R
LAPEER         NOT AVBL
MASON          CLOUDY    18   9  70 CALM      29.95S
MONROE         CLEAR     16  10  79 CALM      29.96R
MT. CLEMENS    CLOUDY    18  12  79 N7        29.96R
PONTIAC        PTCLDY    14   9  80 NE6       29.95R
PORT HOPE        N/A     20   8  60 E15       29.98S
PORT HURON     CLOUDY    18  12  79 NE6       29.98S
TRI CITIES     CLEAR     17  10  74 E5        30.00R
YPSILANTI      MOCLDY    19   9  65 CALM      29.97R
$$
MIZ043>046-050>051-056>058-064>065-071>073-077>080-270300-
SOUTHWEST LOWER MICHIGAN

CITY           SKY/WX    TMP DP  RH WIND       PRES   REMARKS
BATTLE CREEK   CLOUDY    25   7  46 CALM      29.95R
BENTON HARBOR  CLOUDY    23  14  68 E5        29.94S
BIG RAPIDS     MOCLDY    18   8  66 E7        29.94S
COLDWATER      CLOUDY    19  11  72 CALM      29.94R
HOLLAND        CLOUDY    23  10  57 E7        29.95S
GRAND RAPIDS   CLOUDY    20   7  57 E7        29.95S
KALAMAZOO      CLOUDY    23   3  42 CALM      29.95R
MARSHALL       CLOUDY    20   8  61 CALM      29.94R
MUSKEGON       CLOUDY    22   8  55 E7        29.95F
$$
MIZ016>042-270300-
NORTHERN LOWER MICHIGAN

CITY           SKY/WX    TMP DP  RH WIND       PRES   REMARKS
ALPENA         CLOUDY    18  11  74 E6        30.03R
BEAVER ISLAND  CLOUDY    20  12  71 E5        30.00S
BELLAIRE       CLOUDY    15   8  75 E3        30.00R
CADILLAC       CLOUDY    18   8  67 SE8       29.92R
CHARLEVOIX     CLOUDY    19  10  70 E6        30.03R
FRANKFORT      MOCLDY    17  11  77 SE3       29.96R
GAYLORD        CLOUDY    15   9  76 VRB5      29.96R
GRAYLING       CLOUDY    16   9  75 E6        29.97R
HARBOR SPRINGS CLOUDY    17   9  72 NE7       30.01R
HOUGHTON LAKE  CLOUDY    12   7  80 E6        29.96R
MANISTEE       CLOUDY    18   7  62 E3        29.96R
OSCODA         CLEAR     20   8  62 E6        30.00S
PELLSTON       CLOUDY    19  10  68 E8        30.03R
TRAVERSE CITY  MOCLDY    20   8  60 E3        29.97R
$$
MIZ007>008-015-270300-
EASTERN UPPER MICHIGAN

CITY           SKY/WX    TMP DP  RH WIND       PRES   REMARKS
KINROSS        PTCLDY     9   3  78 E10       30.04S WCI  -6
MACKINAC ISLAN LGT SNOW  19  16  85 SE5       30.02S
NEWBERRY       MOCLDY    12   9  85 E9        30.00S
S. S. MARIE    CLOUDY    10  -5  50 E7        30.06R
$$
MIZ004>006-011>014-085-270300-
CENTRAL UPPER MICHIGAN

CITY           SKY/WX    TMP DP  RH WIND       PRES   REMARKS
MANISTIQUE     CLOUDY    21  13  71 E12G20    29.98F
ESCANABA       CLOUDY    23  16  74 SE10      29.95R
MENOMINEE      CLOUDY    25  19  80 SE9       29.92S
SAWYER-GWINN   LGT SNOW  19  14  79 SE9       29.92R
$$
MIZ001>003-009>011-084-270300-
WESTERN UPPER MICHIGAN

CITY           SKY/WX    TMP DP  RH WIND       PRES   REMARKS
IRON MOUNTAIN  LGT SNOW  22  19  89 SE8       29.88R FOG
HOUGHTON       LGT SNOW  21  18  88 SE6       29.88R FOG
COPPER HARBOR    N/A     25  20  81 SW12G21   29.91R
IRONWOOD       CLOUDY    21  19  93 S3        29.83R
$$

ABBREVIATIONS USED IN REMARKS
   TC - TEMPERATURE IN CELSIUS
  WCI - WIND CHILL INDEX
   HX - HEAT INDEX
  VSB - VISIBILITY




USA.gov is the U.S. government's official web portal to all federal, state and local government web resources and services.